Sevilla, Spain

11:21 AM CET on January 16, 2018 (GMT +0100)
San Pablo

Weather History for LEZL - August, 2014

Change the Weather History Date:

Friday, August 8, 2014

  Actual Average Record
Temperature  
Mean Temperature 83 °F -  
Max Temperature 98 °F 90 °F 105 °F (2003)
Min Temperature 68 °F 65 °F 60 °F (1997)
Cooling Degree Days 18    
Growing Degree Days 33 (Base 50)    
Moisture  
Dew Point 59 °F    
Average Humidity 47    
Maximum Humidity 83    
Minimum Humidity 18    
Precipitation  
Precipitation 0.00 in - - ()
Sea Level Pressure  
Sea Level Pressure 29.87 in    
Wind  
Wind Speed 4 mph ()    
Max Wind Speed 16 mph    
Max Gust Speed -    
Visibility 17.7 miles    
Events      
Averages and records for this station are not official NWS values.
T = Trace of Precipitation, MM = Missing Value Source: Averaged Metar Reports

Daily Weather History Graph

Daily Weather History Graph

Search for Another Location

Airport or City:

Trip Planner

Search our weather history database for the weather conditions in past years. The results will help you decide how hot, cold, wet, or windy it might be!

Date:

Astronomy

Aug. 08, 2014 Rise Set
Actual Time 7:33 AM CEST 9:24 PM CEST
Civil Twilight 7:05 AM CEST 9:52 PM CEST
Nautical Twilight 6:30 AM CEST 10:26 PM CEST
Astronomical Twilight 5:53 AM CEST 11:03 PM CEST
Moon 7:22 PM CEST (8/8) 4:51 AM CEST (8/8)
Length of Visible Light 14h 47m
Length of Day
13h 50m
Waxing Gibbous, 92% of the Moon is Illuminated
Aug 8
Waxing Gibbous
Aug 10
Full
Aug 17
Last Quarter
Aug 25
New
Sep 2
First Quarter

Hourly Weather History & Observations

Time (CEST) Temp. Heat Index Dew Point Humidity Pressure Visibility Wind Dir Wind Speed Gust Speed Precip Events Conditions
12:00 AM 77.0 °F - 60.8 °F 57% 29.92 in - SSW 3.5 mph - N/A   Clear
12:30 AM 77.0 °F - 60.8 °F 57% 29.92 in - SSW 3.5 mph - N/A   Clear
2:00 AM 76 °F - 64 °F 58% 29.92 in - SSW 4.6 mph - -  
3:30 AM 73.4 °F - 62.6 °F 69% 29.92 in - Calm Calm - N/A   Clear
4:00 AM 71.6 °F - 60.8 °F 69% 29.92 in - Variable 2.3 mph - N/A   Clear
4:30 AM 71.6 °F - 60.8 °F 69% 29.89 in - South 5.8 mph - N/A   Clear
5:00 AM 72 °F - 63 °F 65% 29.91 in 16 mi South 2.3 mph - -  
5:00 AM 69.8 °F - 60.8 °F 73% 29.89 in - South 3.5 mph - N/A   Clear
5:30 AM 71.6 °F - 60.8 °F 69% 29.89 in - SSW 1.2 mph - N/A   Clear
6:00 AM 71.6 °F - 62.6 °F 73% 29.89 in - SW 3.5 mph - N/A   Clear
6:30 AM 71.6 °F - 62.6 °F 73% 29.89 in - Calm Calm - N/A   Clear
7:00 AM 69.8 °F - 62.6 °F 78% 29.89 in - Calm Calm - N/A   Clear
7:30 AM 68.0 °F - 62.6 °F 83% 29.89 in - Calm Calm - N/A   Clear
8:00 AM 70 °F - 62 °F 68% 29.91 in 16 mi Calm Calm - -  
8:00 AM 68.0 °F - 60.8 °F 78% 29.89 in - Calm Calm - N/A   Clear
8:30 AM 71.6 °F - 62.6 °F 73% 29.92 in - Calm Calm - N/A   Clear
9:00 AM 73.4 °F - 62.6 °F 69% 29.92 in - Calm Calm - N/A   Clear
9:30 AM 73.4 °F - 64.4 °F 73% 29.92 in - Variable 1.2 mph - N/A   Clear
10:00 AM 77.0 °F - 62.6 °F 61% 29.92 in - Variable 2.3 mph - N/A   Clear
10:30 AM 78.8 °F - 62.6 °F 57% 29.92 in - NW 3.5 mph - N/A   Clear
11:00 AM 83 °F - 61 °F 37% 29.92 in 16 mi ENE 2.3 mph - -  
11:00 AM 82.4 °F 82.9 °F 60.8 °F 48% 29.92 in - NNE 1.2 mph - N/A   Clear
11:30 AM 84.2 °F 83.8 °F 59.0 °F 42% 29.92 in - SE 1.2 mph - N/A   Clear
12:00 PM 86.0 °F 85.4 °F 59.0 °F 40% 29.92 in - South 2.3 mph - N/A   Clear
12:30 PM 86.0 °F 85.4 °F 59.0 °F 40% 29.92 in - SW 4.6 mph - N/A   Clear
1:00 PM 87.8 °F 87.1 °F 59.0 °F 38% 29.92 in - South 3.5 mph - N/A   Clear
1:30 PM 89.6 °F 88.9 °F 59.0 °F 36% 29.89 in - Variable 4.6 mph - N/A   Clear
2:00 PM 93 °F - 60 °F 24% 29.89 in 19 mi SSW 5.8 mph - -  
2:00 PM 91.4 °F 90.7 °F 59.0 °F 34% 29.89 in - SW 4.6 mph - N/A   Clear
2:30 PM 91.4 °F 90.7 °F 59.0 °F 34% 29.89 in - WSW 5.8 mph - N/A   Clear
3:00 PM 93.2 °F 91.3 °F 55.4 °F 28% 29.86 in - SSW 8.1 mph - N/A   Clear
3:30 PM 95.0 °F 92.7 °F 53.6 °F 25% 29.86 in - SW 5.8 mph - N/A   Clear
4:00 PM 95.0 °F 92.7 °F 53.6 °F 25% 29.86 in - West 5.8 mph - N/A   Clear
4:30 PM 95.0 °F 93.7 °F 57.2 °F 28% 29.83 in - SW 8.1 mph - N/A   Clear
5:00 PM 99 °F - 59 °F 18% 29.83 in 19 mi SSW 9.2 mph - -  
5:00 PM 95.0 °F 93.7 °F 57.2 °F 28% 29.83 in - SW 8.1 mph - N/A   Clear
5:30 PM 95.0 °F 93.7 °F 57.2 °F 28% 29.83 in - SW 10.4 mph - N/A   Clear
6:00 PM 96.8 °F 95.8 °F 57.2 °F 27% 29.80 in - SSW 9.2 mph - N/A   Clear
6:30 PM 95.0 °F 93.7 °F 57.2 °F 28% 29.80 in - SSW 12.7 mph - N/A   Clear
7:30 PM 93.2 °F 91.3 °F 55.4 °F 28% 29.80 in - SW 15.0 mph - N/A   Clear
8:00 PM 94 °F - 57 °F 19% 29.80 in 19 mi SSW 13.8 mph - -  
8:00 PM 93.2 °F 91.3 °F 55.4 °F 28% 29.80 in - SSW 15.0 mph - N/A   Clear
8:30 PM 91.4 °F 89.4 °F 55.4 °F 29% 29.80 in - SW 16.1 mph - N/A   Clear
9:00 PM 87.8 °F 86.1 °F 55.4 °F 33% 29.80 in - SW 13.8 mph - N/A   Clear
9:30 PM 86.0 °F 84.9 °F 57.2 °F 37% 29.80 in - SSW 9.2 mph - N/A   Clear
10:00 PM 84.2 °F 83.5 °F 57.2 °F 40% 29.80 in - SSW 8.1 mph - N/A   Clear
10:30 PM 82.4 °F 81.7 °F 55.4 °F 39% 29.83 in - SSW 6.9 mph - N/A   Clear
11:00 PM 82 °F - 57 °F 32% 29.84 in 19 mi SSW 6.9 mph - -  
11:00 PM 82.4 °F 81.7 °F 55.4 °F 39% 29.83 in - SSW 5.8 mph - N/A   Clear
11:30 PM 80.6 °F 80.5 °F 55.4 °F 42% 29.83 in - SSW 6.9 mph - N/A   Clear